Date String (YYYY-MM-DD hh:mm:ss) UTC,Instrument flags,absolute air pressure of the measurement (hPa),sample flow rate (lpm),inlet stack bypass flow (lpm),air temperature of the measurement (°C),ambient temperature measured by the external sensor (°C),aerosol sample conditioner tube jacket temperature (°C),OPC LED temperature (°C),internal box temperature (°C),relative humidity of the measurement (%),span deviation,mass concentration of particles derived from Lorenz-Mie calculation of OPC scattering (μg/m³),mass concentration of particles derived from Lorenz-Mie calculation of OPC scattering (μg/m³),mass concentration of particles derived from Lorenz-Mie calculation of OPC scattering (μg/m³)
DateTimeUTC,F1_M11,P_M11,Q1_M11,Q2_M11,T1_M11,T2_M11,T3_M11,T4_M11,T5_M11,U1_M11,ZSPAN_M11,X2_M11,X0_M11,X1_M11
2024-01-08 09:00:00,SystemResetWarning,0817.8,5.00,000.00,019.0,018.3,000.0,027.3,020.2,15.7,0000.0,0001.85,0003.90,0001.34
2024-01-08 09:01:00,SystemResetWarning,0817.8,5.00,000.00,019.0,018.3,000.0,027.3,020.2,15.6,0000.0,0001.85,0003.89,0001.34
2024-01-08 09:02:00,SystemResetWarning,0817.8,4.99,000.00,018.9,018.3,000.0,027.3,020.2,15.7,0000.0,0001.84,0003.91,0001.34
2024-01-08 09:03:00,SystemResetWarning,0817.7,4.99,000.00,018.9,018.3,000.0,027.3,020.2,15.7,0000.0,0001.83,0004.05,0001.34
2024-01-08 09:04:00,SystemResetWarning,0817.7,5.00,000.00,018.9,018.3,000.0,027.3,020.1,15.7,0000.0,0001.83,0003.05,0001.34
2024-01-08 09:05:00,SystemResetWarning,0817.7,4.99,000.00,018.9,018.3,000.0,027.3,020.1,15.7,0000.0,0001.85,0002.97,0001.34
2024-01-08 09:06:00,SystemResetWarning,0817.7,5.00,000.00,018.9,018.3,000.0,027.3,020.0,15.7,0000.0,0001.92,0003.19,0001.34
2024-01-08 09:07:00,SystemResetWarning,0817.7,5.00,000.00,018.9,018.2,000.0,027.3,020.0,15.6,0000.0,0001.96,0003.29,0001.35
2024-01-08 09:08:00,SystemResetWarning,0817.7,5.00,000.00,018.9,018.2,000.0,027.3,020.0,15.7,0000.0,0001.92,0003.16,0001.36
2024-01-08 09:09:00,SystemResetWarning,0817.7,5.01,000.00,018.9,018.2,000.0,027.3,020.1,15.7,0000.0,0001.88,0003.06,0001.36
2024-01-08 09:10:00,SystemResetWarning,0817.7,5.00,000.00,018.9,018.2,000.0,027.3,020.1,15.7,0000.0,0001.88,0003.03,0001.37
2024-01-08 09:11:00,SystemResetWarning,0817.7,5.00,000.00,018.9,018.2,000.0,027.3,020.0,15.7,0000.0,0001.92,0003.17,0001.38
2024-01-08 09:12:00,SystemResetWarning,0817.7,4.99,000.00,018.8,018.2,000.0,027.3,020.0,15.8,0000.0,0001.88,0003.09,0001.38
2024-01-08 09:13:00,SystemResetWarning,0817.8,4.99,000.00,018.8,018.2,000.0,027.3,020.0,15.8,0000.0,0001.87,0003.01,0001.39
2024-01-08 09:14:00,SystemResetWarning,0817.8,5.00,000.00,018.8,018.2,000.0,027.3,020.0,15.7,0000.0,0001.88,0002.99,0001.38
2024-01-08 09:15:00,SystemResetWarning,0817.8,5.00,000.00,018.8,018.2,000.0,027.3,020.0,15.7,0000.0,0001.90,0003.08,0001.39
2024-01-08 09:16:00,SystemResetWarning,0817.8,5.00,000.00,018.8,018.2,000.0,027.2,020.0,15.7,0000.0,0001.89,0002.98,0001.41
2024-01-08 09:17:00,SystemResetWarning,0817.8,5.01,000.00,018.8,018.2,000.0,027.2,020.0,15.8,0000.0,0001.88,0002.80,0001.44
2024-01-08 09:18:00,SystemResetWarning,0817.8,5.00,000.00,018.8,018.2,000.0,027.2,020.0,15.8,0000.0,0001.88,0002.78,0001.46
2024-01-08 09:19:00,SystemResetWarning,0817.9,5.00,000.00,018.8,018.1,000.0,027.2,020.0,15.8,0000.0,0001.91,0002.81,0001.49
2024-01-08 09:20:00,SystemResetWarning,0817.9,5.00,000.00,018.8,018.1,000.0,027.2,020.0,15.8,0000.0,0001.94,0002.84,0001.52
2024-01-08 09:21:00,SystemResetWarning,0817.9,5.00,000.00,018.8,018.1,000.0,027.2,020.0,15.9,0000.0,0002.00,0002.95,0001.55
2024-01-08 09:22:00,SystemResetWarning,0817.9,5.00,000.00,018.8,018.1,000.0,027.2,020.0,15.9,0000.0,0002.06,0003.03,0001.60
2024-01-08 09:23:00,SystemResetWarning,0818.0,4.99,000.00,018.8,018.1,000.0,027.2,020.0,15.9,0000.0,0002.15,0003.23,0001.67
2024-01-08 09:24:00,SystemResetWarning,0818.0,5.00,000.00,018.8,018.1,000.0,027.2,020.0,15.9,0000.0,0002.23,0003.38,0001.74
2024-01-08 09:25:00,SystemResetWarning,0818.0,5.00,000.00,018.8,018.1,000.0,027.2,020.0,15.9,0000.0,0002.29,0003.35,0001.81
2024-01-08 09:26:00,SystemResetWarning,0818.0,5.01,000.00,018.8,018.1,000.0,027.2,020.0,16.0,0000.0,0002.36,0003.31,0001.90
2024-01-08 09:27:00,SystemResetWarning,0818.0,5.00,000.00,018.8,018.1,000.0,027.2,020.0,16.0,0000.0,0002.48,0003.48,0001.99
2024-01-08 09:28:00,SystemResetWarning,0817.9,5.00,000.00,018.8,018.1,000.0,027.2,020.0,16.1,0000.0,0002.58,0003.58,0002.07
2024-01-08 09:29:00,SystemResetWarning,0818.0,5.00,000.00,018.8,018.0,000.0,027.2,020.0,16.1,0000.0,0002.67,0003.65,0002.17
2024-01-08 09:30:00,SystemResetWarning,0818.0,4.99,000.00,018.8,018.0,000.0,027.2,020.0,16.1,0000.0,0002.78,0003.77,0002.27
2024-01-08 09:31:00,SystemResetWarning,0818.0,4.99,000.00,018.8,018.0,000.0,027.2,020.0,16.1,0000.0,0002.90,0003.88,0002.38
2024-01-08 09:32:00,SystemResetWarning,0818.0,4.99,000.00,018.8,018.0,000.0,027.2,020.0,16.0,0000.0,0003.01,0004.02,0002.50
2024-01-08 09:33:00,SystemResetWarning,0818.0,5.00,000.00,018.8,018.0,000.0,027.2,020.0,16.0,0000.0,0003.09,0004.08,0002.61
2024-01-08 09:34:00,SystemResetWarning,0818.0,5.01,000.00,018.8,018.0,000.0,027.2,020.0,16.0,0000.0,0003.13,0004.04,0002.69
2024-01-08 09:35:00,SystemResetWarning,0817.9,5.01,000.00,018.8,018.0,000.0,027.2,020.0,16.0,0000.0,0003.18,0004.21,0002.77
2024-01-08 09:36:00,SystemResetWarning,0817.9,4.99,000.00,018.8,018.0,000.0,027.2,020.0,16.0,0000.0,0003.25,0004.44,0002.85
2024-01-08 09:37:00,SystemResetWarning,0818.0,4.99,000.00,018.8,018.0,000.0,027.2,020.0,16.1,0000.0,0003.30,0004.61,0002.91
2024-01-08 09:38:00,SystemResetWarning,0817.9,5.00,000.00,018.8,018.0,000.0,027.2,020.0,16.1,0000.0,0003.33,0004.66,0002.99
2024-01-08 09:39:00,SystemResetWarning,0817.9,5.01,000.00,018.8,018.0,000.0,027.2,020.0,16.0,0000.0,0003.36,0004.72,0003.04
2024-01-08 09:40:00,SystemResetWarning,0818.0,5.01,000.00,018.8,018.0,000.0,027.2,020.0,16.1,0000.0,0003.40,0004.82,0003.09
2024-01-08 09:41:00,SystemResetWarning,0818.0,5.00,000.00,018.8,018.0,000.0,027.2,020.0,16.1,0000.0,0003.43,0004.99,0003.11
2024-01-08 09:42:00,SystemResetWarning,0818.0,4.99,000.00,018.8,018.0,000.0,027.2,020.0,16.0,0000.0,0003.46,0005.15,0003.12
2024-01-08 09:43:00,SystemResetWarning,0818.0,4.99,000.00,018.8,018.0,000.0,027.2,020.0,16.1,0000.0,0003.46,0005.12,0003.12
2024-01-08 09:44:00,SystemResetWarning,0818.0,5.00,000.00,018.8,018.0,000.0,027.2,020.0,16.1,0000.0,0003.48,0005.12,0003.14
2024-01-08 09:45:00,SystemResetWarning,0818.0,5.00,000.00,018.8,018.0,000.0,027.2,020.0,16.1,0000.0,0003.51,0005.21,0003.16
2024-01-08 09:46:00,SystemResetWarning,0818.1,5.01,000.00,018.8,018.0,000.0,027.2,020.0,16.1,0000.0,0003.52,0005.12,0003.17
2024-01-08 09:47:00,SystemResetWarning,0818.1,5.01,000.00,018.8,017.9,000.0,027.2,020.0,16.1,0000.0,0003.54,0005.15,0003.18
2024-01-08 09:48:00,SystemResetWarning,0818.2,5.01,000.00,018.8,017.9,000.0,027.2,020.3,16.1,0000.0,0003.54,0005.12,0003.19
2024-01-08 09:49:00,SystemResetWarning,0818.2,5.00,000.00,018.9,018.5,000.0,027.2,020.7,16.0,0000.0,0003.54,0005.01,0003.19
2024-01-08 09:50:00,SystemResetWarning,0818.3,5.00,000.00,019.1,019.1,000.0,027.2,020.9,15.9,0000.0,0003.56,0005.07,0003.19
2024-01-08 09:51:00,SystemResetWarning,0818.3,4.99,000.00,019.1,019.1,000.0,027.3,020.6,15.9,0000.0,0003.54,0005.02,0003.19
2024-01-08 09:52:00,SystemResetWarning,0818.3,4.99,000.00,019.1,018.9,000.0,027.3,020.4,15.9,0000.0,0003.54,0004.94,0003.19
2024-01-08 09:53:00,SystemResetWarning,0818.2,5.01,000.00,019.1,018.8,000.0,027.3,020.3,15.9,0000.0,0003.53,0004.86,0003.19
2024-01-08 09:54:00,SystemResetWarning,0818.3,5.00,000.00,019.1,018.6,000.0,027.3,020.2,16.0,0000.0,0003.52,0004.84,0003.19
2024-01-08 09:55:00,SystemResetWarning,0818.3,5.00,000.00,019.0,018.5,000.0,027.3,020.1,16.0,0000.0,0003.49,0004.78,0003.18
2024-01-08 09:56:00,SystemResetWarning,0818.3,5.00,000.00,019.0,018.5,000.0,027.3,020.1,16.0,0000.0,0003.45,0004.60,0003.17
2024-01-08 09:57:00,SystemResetWarning,0818.3,5.00,000.00,019.0,018.4,000.0,027.3,020.0,16.1,0000.0,0003.43,0004.48,0003.17
2024-01-08 09:58:00,SystemResetWarning,0818.3,5.00,000.00,019.0,018.3,000.0,027.3,020.0,16.1,0000.0,0003.42,0004.58,0003.17
2024-01-08 09:59:00,SystemResetWarning,0818.3,4.99,000.00,018.9,018.3,000.0,027.3,020.0,16.1,0000.0,0003.43,0004.68,0003.17
